COSMOS 1275 DEB, 42155

Orbit data source: Space-Track

COSMOS 1275 DEB, 42155 is space debris in LEO originally from a launch on Thu, 04 Jun 1981 UTC launched from the Plesetsk Missile And Space Complex (PKMTR). Debris objects in space refer to the collection of defunct objects orbiting the Earth. Examples of debris include non-operational satellites, rocket bodies, and fragments generated from explosions, collisions, or faulty payload assembly.

Loading next visibility...
Identifier
42155, 1981-053RT
Orbit
LEO
Country
Flag of CISCIS
Related business
Manufacturer
Unknown
Mission
Spacecraft
Bus & Motor
Unknown
Mass
Unknown
Launch date (UTC)
1981-06-04 (45 years ago)
Launch vehicle
Unknown
Launch site
Plesetsk Missile And Space Complex (PKMTR)
Object type
Payload
Rocket body
Debris
Shape & HBR
Unknown shape, 0.1 m
Radar Cross Section
Small (<0.1 m²)

Expand to show TLE details & history
Last TLE update: 3 days ago

TLE from 3 days ago
0 COSMOS 1275 DEB
1 42155U 81053RT  25340.87687065  .00004026  00000-0  21265-2 0  9995
2 42155  82.9091  39.0304 0039870 341.5339  18.4389 14.13218455617519
Epoch: 2025-12-06T21:02Z
TLE epoch observation values (Epoch: 2025-12-06T21:02:41.624Z)
Latitude
0.00005°
Longitude
7.45866°
Altitude
824.004 km
Speed
7.455 km/s
True Right ascension
02h 36m 07s
True Declination
0° 00' 00"
Sunlit
Object was in full shadow at epoch
Visualization orbit readout
Latitude
Unknown
Longitude
Unknown
Altitude
Unknown
Speed
Unknown
Apparent Right ascension
Unknown
Apparent Declination
Unknown
Sunlit
N/A
Visualization observer readout
Local Sidereal Time
07:17:24
Azimuth
Unknown
Elevation
Unknown
Doppler factor
Unknown
Orbital elements
Apogee altitude
874.277 km
Perigee altitude
816.676 km
Semi-major axis
7,223.613 km
Eccentricity
0.00399
Inclination
82.9091°
RAAN
39.0304°
Arg. of periapsis
341.5339°
True anomaly
18.58409°
Mean anomaly
18.4389°
Eccentric anomaly
18.51143°
Mean motion
3.53518 °/min
Orbital period
101.83 mins
BSTAR
0.0021265
Loading maneuver chart data...
Computing Atmospheric mass density...

Documentation

Showing up to 5 results
|